Location: Eurasberg
(48.3353°N, 11.0839°E)
Time: 13:58:44
(UTC+00:00)

Timation 1 Rocket - Pass Details

Date: 22 April 2026
Orbit: 895 x 908 km, 70.0° (Epoch: 14 May)

Event Time Altitude Azimuth Distance (km) Brightness Sun altitude
Exits shadow 21:59:51 17° 80° (E) 2,129 6.2 -27.0°
Drops below altitude 10° 22:02:14 10° 58° (ENE) 2,599 6.9 -27.2°
Sets 22:05:27 0° 41° (NE) 3,547 7.8 -27.3°
